User: anonymous   Login
Location: Theydon Bois
(51.6750°N, 0.1050°E)
Time: 15:13:01
(UTC+00:00)
Language:

Cosmos 2151 - Orbit

View from above orbital plane
View from above orbital plane
View from above satellite
View from above satellite

Ground track
Ground track

The orbit data is extracted from the following two-line orbital elements,

1 21422U 91042A   17347.81832535  .00000239  00000-0  21059-4 0  9999
2 21422  82.5019  75.5094 0015455  58.5451 301.7277 14.91903400435286
Epoch (UTC): 13 December 2017 19:38:23
Eccentricity: 0.0015455
inclination: 82.5019°
perigee height: 581 km
apogee height: 603 km
right ascension of ascending node: 75.5094°
argument of perigee: 58.5451°
revolutions per day: 14.91903400
mean anomaly at epoch: 301.7277°
orbit number at epoch: 43528

The dashed part of the orbit path shows where the satellite is in the earth's shadow,  

DLR